Location: Marcé
(47.5801°N, 0.3280°W)
Time: 21:07:52
(UTC+01:00)

Tiros 1 despin weight - Pass Details

Date: 13 December 2021
Orbit: 592 x 641 km, 48.2° (Epoch: 16 January)

Event Time Altitude Azimuth Distance (km) Brightness Sun altitude
Rises 10:19:24 0° 218° (SW) 2,871 ? 11.0°
Reaches altitude 10° 10:21:54 10° 208° (SSW) 1,960 ? 11.3°
Maximum altitude 10:25:51 31° 147° (SSE) 1,077 ? 11.7°
Drops below altitude 10° 10:29:46 10° 85° (E) 1,943 ? 12.0°
Sets 10:32:14 0° 75° (ENE) 2,841 ? 12.3°
